Weather History for Moline, IL

Change the Weather History Date:

Monday, April 22, 2013

  Actual Average Record
Temperature  
Mean Temperature 58 °F 54 °F  
Max Temperature 70 °F 65 °F 92 °F (1980)
Min Temperature 45 °F 43 °F 28 °F (1986)
Degree Days  
Heating Degree Days 7 12  
Month to date heating degree days 402 340  
Since 1 July heating degree days 6069 5942  
Cooling Degree Days 0 1  
Month to date cooling degree days 0 6  
Year to date cooling degree days 0 7  
Growing Degree Days 8 (Base 50)    
Moisture  
Dew Point 37 °F    
Average Humidity 57    
Maximum Humidity 83    
Minimum Humidity 30    
Precipitation  
Precipitation 0.03 in 0.12 in 1.26 in (1999)
Month to date precipitation 6.81 2.55  
Year to date precipitation 14.78 8.50  
Snow  
Snow 0.00 in 0.00 in - ()
Month to date snowfall T 0.9  
Since 1 July snowfall 34.5 31.6  
Snow Depth 0.00 in    
Sea Level Pressure  
Sea Level Pressure 30.12 in    
Wind  
Wind Speed 9 mph (SSE)    
Max Wind Speed 22 mph    
Max Gust Speed 26 mph    
Visibility 10 miles    
Events Rain    
T = Trace of Precipitation, MM = Missing Value Source: NWS Daily Summary

Daily Weather History Graph

Daily Weather History Graph

Search for Another Location

Airport:

Trip Planner

Search our weather history database for the weather conditions in past years. The results will help you decide how hot, cold, wet, or windy it might be!

Date:

Astronomy

Apr. 22, 2013 Rise Set
Actual Time 6:11 AM CDT 7:50 PM CDT
Civil Twilight 5:42 AM CDT 8:19 PM CDT
Nautical Twilight 5:06 AM CDT 8:55 PM CDT
Astronomical Twilight 4:28 AM CDT 9:33 PM CDT
Moon 4:37 PM CDT (4/22) 4:08 AM CDT (4/22)
Length of Visible Light 14h 37m
Length of Day
13h 38m
Waxing Gibbous, 88% of the Moon is Illuminated
Apr 22
Waxing Gibbous
Apr 25
Full
May 2
Last Quarter
May 9
New
May 17
First Quarter

Hourly Weather History & Observations

Time (CDT) Temp. Windchill Dew Point Humidity Pressure Visibility Wind Dir Wind Speed Gust Speed Precip Events Conditions
12:52 AM 48.9 °F - 37.0 °F 64% 30.23 in 10.0 mi SSE 15.0 mph - N/A   Overcast
1:52 AM 48.9 °F - 37.0 °F 64% 30.22 in 10.0 mi SSE 12.7 mph 21.9 mph N/A   Overcast
2:52 AM 48.9 °F - 37.0 °F 64% 30.23 in 10.0 mi SSE 8.1 mph - N/A   Overcast
3:52 AM 48.0 °F - 36.0 °F 63% 30.21 in 10.0 mi SSE 10.4 mph - N/A   Overcast
4:52 AM 46.0 °F 41.0 °F 35.1 °F 66% 30.20 in 10.0 mi SSE 10.4 mph - N/A   Mostly Cloudy
5:52 AM 46.0 °F 41.9 °F 35.1 °F 66% 30.20 in 10.0 mi South 8.1 mph - N/A   Mostly Cloudy
6:52 AM 46.0 °F 42.5 °F 35.1 °F 66% 30.20 in 10.0 mi South 6.9 mph - N/A   Overcast
7:52 AM 50.0 °F - 36.0 °F 59% 30.20 in 10.0 mi Calm Calm - N/A   Overcast
8:52 AM 53.1 °F - 34.0 °F 48% 30.20 in 10.0 mi South 5.8 mph - N/A   Scattered Clouds
9:52 AM 57.9 °F - 36.0 °F 44% 30.18 in 10.0 mi South 6.9 mph - N/A   Mostly Cloudy
10:52 AM 62.1 °F - 35.1 °F 37% 30.17 in 10.0 mi South 15.0 mph - N/A   Partly Cloudy
11:52 AM 64.0 °F - 36.0 °F 35% 30.16 in 10.0 mi SSW 13.8 mph - N/A   Clear
12:52 PM 68.0 °F - 37.9 °F 33% 30.12 in 10.0 mi South 13.8 mph 19.6 mph N/A   Clear
1:52 PM 69.1 °F - 37.9 °F 32% 30.10 in 10.0 mi SSE 15.0 mph - N/A   Clear
2:52 PM 68.0 °F - 36.0 °F 31% 30.06 in 10.0 mi SSE 12.7 mph 24.2 mph N/A   Clear
3:52 PM 66.9 °F - 36.0 °F 32% 30.03 in 10.0 mi SSE 10.4 mph 26.5 mph N/A   Clear
4:52 PM 66.9 °F - 37.0 °F 33% 30.01 in 10.0 mi SSE 12.7 mph 24.2 mph N/A   Clear
5:52 PM 66.0 °F - 35.1 °F 32% 29.99 in 10.0 mi SSE 16.1 mph 24.2 mph N/A   Mostly Cloudy
6:52 PM 64.0 °F - 36.0 °F 35% 29.99 in 10.0 mi SSE 11.5 mph - N/A   Partly Cloudy
7:52 PM 61.0 °F - 37.9 °F 42% 29.99 in 10.0 mi SSE 6.9 mph - N/A   Partly Cloudy
8:52 PM 57.9 °F - 39.9 °F 51% 30.00 in 10.0 mi SE 5.8 mph - N/A   Partly Cloudy
9:52 PM 57.9 °F - 41.0 °F 53% 30.01 in 10.0 mi South 5.8 mph - N/A   Mostly Cloudy
10:52 PM 57.9 °F - 44.1 °F 60% 30.03 in 10.0 mi SSW 9.2 mph - 0.00 in Rain Light Rain
11:52 PM 54.0 °F - 48.9 °F 83% 30.02 in 8.0 mi South 3.5 mph - 0.03 in Rain Light Rain